Location: Glenbow
(51.1592°N, 114.3828°W)
Time: 14:23:49
(UTC+00:00)

Envisat - Pass Details

Date: 30 November 2021
Orbit: 764 x 766 km, 98.2° (Epoch: 28 January)

Event Time Altitude Azimuth Distance (km) Brightness Sun altitude
Rises 11:20:51 0° 27° (NNE) 3,247 6.7 -36.3°
Reaches altitude 10° 11:24:01 10° 48° (NE) 2,314 6.1 -35.8°
Maximum altitude 11:27:15 17° 87° (E) 1,883 5.7 -35.3°
Drops below altitude 10° 11:30:28 10° 127° (SE) 2,302 5.9 -34.8°
Sets 11:33:36 0° 148° (SSE) 3,222 6.5 -34.3°
